Wind_Speed
7 22 17 15 6 4 20 24 16 24 30 24 21 17 17 15 14 19 23 28 19 10 8 9 5 20 23 38 41 44 43 35 31 36 26 22 18 20 19 15 10 12 6 6 8 14 14 9 14
9 25 7 7 6 9 14 23 27 26 25 16 16 17 18 18 18 17 19 23 27 13 9 9 6 15 21 29 33 40 40 37 33 38 30 30 26 14 15 12 22 20 12 8 13 17 11 14 14
13 10 4 6 3 8 13 17 26 29 21 11 13 14 19 22 22 21 16 19 22 22 4 11 14 8 24 25 25 33 37 34 37 34 31 32 31 22 17 22 21 15 16 20 18 11 11 14 12
8 6 5 7 15 14 7 17 22 15 16 17 15 17 17 21 23 22 23 17 16 20 18 5 11 15 20 24 21 27 34 34 40 35 34 30 28 30 25 27 22 22 14 10 4 6 8 13 12
3 0 4 4 11 9 14 19 14 18 14 23 21 23 17 19 20 22 22 22 14 16 18 13 10 17 25 24 23 25 34 35 42 33 34 33 30 31 32 25 23 21 19 13 11 13 11 16 14
1 7 4 7 11 10 10 24 19 20 22 25 23 21 23 14 14 15 18 20 17 13 16 16 7 18 24 24 25 23 32 37 37 36 33 30 38 31 33 31 24 20 19 17 15 12 18 17 15
3 5 4 8 10 17 21 23 26 20 28 28 17 17 13 16 12 12 15 16 18 11 12 13 9 6 22 25 28 31 32 33 38 37 35 25 26 29 36 36 26 24 19 15 12 12 13 13 13
7 9 6 9 11 18 25 26 29 22 17 20 10 15 19 27 17 12 14 14 15 12 8 13 14 8 14 28 32 36 39 35 38 40 41 39 33 33 31 29 30 28 26 25 23 20 16 16 11
16 9 15 9 18 32 29 35 32 28 17 20 26 25 32 28 21 10 11 10 12 12 6 11 14 14 10 15 24 37 41 39 42 43 41 42 43 39 37 34 31 33 29 25 24 17 20 20 13
19 18 16 15 18 23 25 24 29 30 24 28 36 37 35 27 20 10 10 6 7 11 7 9 12 9 6 6 12 17 24 46 52 47 43 42 36 35 33 31 25 21 22 21 21 21 23 18 16
17 20 22 22 21 18 16 15 17 20 21 22 23 20 22 25 21 9 11 5 7 8 10 5 9 10 7 6 8 9 3 6 28 44 47 47 41 37 34 30 30 30 25 29 24 24 25 20 20
17 18 21 24 26 27 25 21 18 19 17 18 20 17 18 19 17 16 11 9 6 4 8 4 4 8 10 8 7 6 5 10 10 33 45 43 40 43 39 34 33 29 27 30 27 28 28 25 23
19 18 21 22 24 25 28 27 22 19 18 16 16 14 13 10 16 21 14 14 10 3 2 4 1 5 10 10 11 10 9 12 13 15 24 32 36 35 33 33 33 35 31 26 28 29 23 29 26
25 24 21 23 26 27 30 29 25 23 18 18 18 15 11 8 12 22 21 16 14 9 4 1 1 3 8 10 12 18 15 10 10 14 17 18 22 23 28 32 37 40 36 29 25 24 26 29 30
28 29 28 27 27 28 30 29 27 26 23 18 19 18 11 14 14 19 25 26 20 16 10 7 4 2 5 8 9 12 11 8 7 11 12 13 15 14 15 15 14 15 14 18 20 23 23 19 20
28 31 30 29 32 34 35 32 28 29 27 21 18 18 16 19 27 25 22 26 27 22 17 13 8 5 5 9 7 9 9 7 8 6 7 7 9 10 10 10 13 12 13 15 16 17 17 19 20
30 31 35 34 34 36 35 39 32 30 31 24 18 14 15 19 23 25 27 21 30 28 24 20 15 11 8 8 7 6 6 10 7 6 8 8 7 9 13 14 13 13 13 15 16 13 16 17 15
32 34 36 38 39 40 39 40 42 36 35 32 20 16 18 18 23 24 28 27 25 32 30 26 22 17 14 11 11 8 7 6 11 11 9 7 12 10 11 11 13 13 13 14 14 11 13 18 16
33 35 37 38 43 47 46 47 40 42 39 34 28 21 21 23 18 39 31 28 31 30 35 32 27 23 19 17 16 13 10 9 8 8 10 10 13 12 9 7 9 13 15 15 15 14 18 14 12
34 36 38 40 44 46 45 46 39 43 44 41 37 28 25 29 29 30 33 35 33 33 37 37 33 29 26 23 20 16 11 10 13 10 9 12 10 11 12 11 10 12 16 15 13 13 14 14 15
33 37 38 39 42 47 47 45 40 41 48 50 48 40 32 32 35 39 40 39 43 39 39 42 40 33 31 29 25 22 16 12 11 12 11 10 12 12 13 15 15 14 15 13 16 14 12 11 14
37 37 40 41 43 49 45 45 43 44 47 54 53 48 44 44 45 46 47 49 46 47 44 47 46 40 36 34 31 27 23 19 14 12 13 11 11 12 12 13 15 17 15 15 13 8 8 7 9
36 39 42 47 49 52 51 48 45 45 47 55 58 52 56 58 52 38 46 55 55 53 49 52 54 51 45 40 37 33 28 24 20 18 15 16 15 10 13 15 14 15 14 16 13 10 13 14 12
39 39 44 48 52 55 54 50 49 46 46 49 52 56 63 65 57 36 34 55 61 62 56 52 58 57 52 48 44 40 35 29 25 21 19 17 16 13 11 14 19 18 15 14 12 19 21 19 18
42 43 47 51 52 55 56 53 52 50 47 46 48 56 58 60 45 35 31 41 67 73 67 63 63 63 57 53 48 46 41 35 31 27 23 21 18 16 15 14 18 20 16 11 13 19 30 26 23
48 48 50 52 53 55 58 54 54 54 52 51 51 54 60 58 41 33 34 31 59 75 77 70 65 67 62 57 52 48 41 35 30 27 26 24 23 20 19 19 21 19 18 20 23 26 29 29 28
49 50 54 57 58 55 57 55 56 57 55 52 51 53 56 54 39 33 28 30 53 74 79 72 66 68 67 60 54 49 43 37 31 28 27 25 25 22 19 20 21 19 23 22 21 25 27 28 26
54 53 60 63 60 59 57 57 58 58 60 57 54 53 53 48 38 32 31 25 41 65 74 68 65 66 70 64 55 48 44 35 30 25 24 23 24 22 22 22 21 20 18 15 17 14 18 22 24
66 62 62 65 65 63 58 55 55 56 55 56 56 52 51 43 36 32 30 37 41 59 67 63 57 63 68 61 54 45 45 42 33 30 25 20 18 21 23 25 25 23 21 20 19 18 21 20 18
69 71 71 68 68 67 62 56 56 56 54 55 52 50 46 38 33 34 36 44 48 59 67 68 64 63 67 65 55 50 42 35 29 27 22 20 20 19 19 21 23 23 23 23 20 15 8 14 18
Wind_Direction
34 36 24 3 332 333 357 5 360 341 350 354 349 5 14 28 13 26 22 23 34 44 48 27 89 177 182 190 200 200 207 212 210 210 197 202 211 216 228 227 223 212 227 266 336 345 336 319 313
87 52 334 1 291 310 328 342 336 330 353 347 346 358 8 17 26 24 22 19 26 39 104 100 75 163 169 180 197 195 202 209 204 210 203 209 212 207 220 227 214 232 255 294 292 321 320 321 310
146 113 175 307 338 345 344 327 326 333 354 343 336 358 355 5 22 17 18 18 20 34 72 138 156 155 183 170 185 195 199 201 198 204 206 212 223 236 224 222 242 252 257 273 312 312 307 322 318
120 176 149 54 360 344 344 325 326 336 11 27 354 346 351 356 9 13 7 15 22 29 50 149 156 185 184 190 195 187 196 199 203 208 209 210 200 197 220 216 236 241 261 289 307 356 302 319 313
177 324 23 69 360 304 329 307 315 329 326 330 360 351 341 345 2 360 2 5 21 27 43 71 194 205 203 201 202 197 195 199 202 205 206 205 200 203 204 218 231 239 254 258 296 306 317 320 322
41 313 293 305 342 307 286 293 312 303 326 323 327 342 329 342 356 348 348 2 11 26 30 51 108 215 221 215 201 202 203 204 201 202 207 211 217 218 223 219 239 248 259 254 277 286 292 312 311
32 313 297 318 319 303 278 297 302 309 321 311 327 339 317 315 337 336 332 4 5 23 29 49 71 200 216 226 216 211 208 209 208 218 212 215 217 227 222 226 229 237 253 255 273 284 297 303 307
353 316 306 283 290 265 304 303 300 321 306 300 295 327 332 320 305 311 326 343 5 7 32 46 54 48 213 219 224 219 217 216 216 218 222 222 220 220 222 222 231 242 254 264 268 273 296 286 290
358 315 304 279 284 297 299 297 307 307 304 283 279 288 303 303 289 284 300 336 360 8 27 49 58 63 82 184 206 220 225 228 221 225 226 225 226 231 237 237 247 246 254 257 258 265 285 283 274
347 341 339 307 305 303 317 307 291 302 300 275 286 300 297 291 271 264 279 317 344 7 5 58 53 72 98 178 188 208 228 232 231 228 220 221 224 229 239 234 231 229 239 245 260 267 275 256 266
348 340 338 337 341 338 332 317 305 310 306 298 299 322 303 288 260 242 270 280 311 357 8 39 53 46 75 95 183 189 216 216 211 214 214 216 217 219 225 227 231 241 242 251 257 271 287 256 254
350 348 344 343 335 329 326 328 333 327 319 310 296 294 307 298 264 236 263 266 267 336 18 21 63 44 48 72 114 152 84 64 184 194 207 211 217 227 227 231 236 239 249 261 266 268 278 246 245
351 348 345 345 338 330 319 320 328 338 328 308 291 290 286 289 258 237 238 253 243 236 42 29 151 79 62 55 84 128 111 88 96 159 189 206 213 219 226 237 240 248 252 254 259 264 246 245 252
345 346 351 344 338 331 322 321 327 335 332 316 302 291 279 271 207 236 250 243 246 222 215 149 116 130 92 69 80 99 87 97 115 132 166 188 212 217 227 238 249 254 258 250 238 238 244 248 258
341 339 346 344 337 331 328 323 325 332 339 320 298 290 272 186 230 248 246 249 242 233 210 200 171 137 139 107 101 114 83 91 108 139 145 143 146 161 178 192 205 216 225 229 227 232 241 232 227
342 338 342 343 336 332 331 327 325 330 334 327 309 291 275 235 236 254 255 240 226 234 211 207 208 176 164 143 138 119 128 94 115 130 128 159 185 191 195 195 184 196 203 210 213 212 214 221 229
341 337 339 343 337 335 330 326 326 326 331 335 314 304 284 271 260 255 255 238 226 218 228 201 206 194 172 159 157 166 145 145 157 160 167 176 188 193 211 211 202 197 200 204 207 215 225 222 203
342 335 335 339 335 333 334 328 327 329 331 331 317 303 298 280 268 265 256 241 241 220 221 215 198 206 188 169 165 173 166 180 178 184 182 158 174 172 196 212 205 198 184 178 212 199 185 175 182
345 337 333 336 334 333 333 334 329 322 324 323 317 303 303 298 274 259 255 251 245 228 221 225 203 203 207 183 173 176 166 154 169 180 186 171 178 183 169 172 188 184 176 176 203 187 185 189 196
344 338 334 332 332 332 327 330 320 321 319 316 320 311 303 304 288 272 263 254 243 233 220 221 215 206 208 204 188 184 181 151 146 145 170 174 171 188 185 180 178 176 177 177 182 184 198 214 215
338 340 336 329 325 325 327 326 323 319 316 315 318 318 306 296 284 275 264 247 245 232 220 221 219 210 210 211 204 195 191 180 156 143 138 168 181 181 189 189 189 184 190 190 195 195 213 228 225
332 334 331 327 322 323 330 325 324 320 315 315 318 317 311 302 291 271 253 244 234 233 220 213 221 212 213 212 211 209 199 191 185 175 162 153 168 192 198 196 198 192 202 216 200 219 220 215 241
321 328 330 328 324 325 329 329 322 318 316 319 321 317 313 311 306 277 249 233 228 229 221 214 215 211 211 211 216 215 212 203 198 193 185 177 169 178 196 203 204 199 191 200 208 217 227 228 222
314 324 328 328 324 325 326 325 320 318 316 319 318 314 318 318 311 290 257 226 219 219 223 214 213 215 211 209 213 218 220 215 209 203 196 187 180 176 192 193 203 207 208 207 226 256 255 254 254
311 320 324 324 323 321 323 324 320 316 318 318 316 316 319 319 306 294 259 230 219 214 211 216 210 209 211 211 214 221 218 220 210 206 200 194 191 182 175 179 181 195 197 210 207 237 256 257 262
307 317 317 318 320 321 320 320 318 317 322 320 316 321 321 323 304 292 271 233 216 215 212 210 208 205 209 211 212 218 218 213 213 212 205 196 192 191 181 172 175 184 201 218 228 226 241 256 262
304 310 312 315 317 320 319 318 318 319 320 320 319 323 322 323 301 280 258 233 213 211 213 213 203 207 205 211 211 214 220 216 212 209 209 205 201 194 192 184 188 193 202 216 237 246 256 267 284
301 307 311 312 316 319 318 319 317 319 319 320 320 323 323 320 296 271 246 235 219 213 214 211 205 208 203 207 210 210 216 215 215 216 215 213 209 209 200 199 199 196 209 217 240 267 272 287 297
303 305 307 310 313 314 315 317 313 317 317 317 320 322 321 318 294 260 234 213 212 210 218 215 208 207 208 206 210 209 209 217 215 221 218 215 213 215 221 216 219 224 224 224 241 265 285 315 309
300 304 305 308 309 312 316 315 315 315 315 314 318 319 315 309 287 251 227 214 204 206 210 213 209 205 209 205 208 214 208 214 225 228 231 231 226 218 220 226 223 224 225 232 242 256 271 287 329
Height
10952 10952 10953 10952 10949 10947 10945 10945 10944 10939 10937 10932 10927 10922 10919 10915 10913 10910 10906 10900 10894 10890 10889 10888 10886 10888 10894 10902 10911 10919 10928 10935 10939 10945 10950 10955 10960 10963 10966 10969 10973 10976 10977 10978 10979 10979 10979 10981 10981
10949 10945 10950 10949 10946 10946 10943 10941 10938 10936 10934 10932 10926 10922 10919 10916 10911 10908 10906 10903 10898 10895 10894 10893 10891 10892 10898 10904 10912 10919 10927 10933 10937 10943 10948 10953 10957 10960 10964 10968 10971 10975 10977 10978 10979 10979 10980 10980 10980
10944 10940 10944 10946 10941 10944 10943 10941 10936 10933 10932 10932 10927 10923 10918 10914 10911 10909 10907 10903 10900 10897 10895 10895 10896 10898 10902 10907 10914 10919 10925 10931 10936 10941 10946 10950 10955 10957 10962 10967 10970 10972 10976 10978 10979 10979 10980 10979 10978
10945 10944 10947 10945 10942 10942 10943 10940 10937 10933 10932 10929 10927 10923 10918 10915 10911 10909 10907 10904 10902 10900 10897 10897 10899 10901 10904 10909 10914 10919 10925 10930 10936 10940 10944 10948 10952 10956 10961 10964 10968 10972 10975 10979 10978 10980 10980 10980 10978
10947 10946 10945 10943 10942 10939 10939 10937 10937 10933 10928 10926 10927 10924 10920 10915 10912 10909 10908 10905 10904 10902 10900 10899 10901 10903 10905 10909 10914 10919 10923 10929 10932 10937 10941 10947 10951 10954 10958 10962 10967 10970 10974 10976 10977 10979 10980 10980 10979
10946 10944 10941 10940 10938 10938 10939 10931 10933 10931 10927 10924 10921 10922 10920 10916 10914 10912 10910 10907 10905 10903 10902 10901 10901 10902 10905 10909 10912 10917 10922 10927 10931 10935 10940 10945 10950 10954 10957 10961 10965 10968 10971 10974 10976 10978 10979 10980 10980
10946 10944 10941 10939 10935 10933 10934 10933 10931 10929 10929 10922 10921 10920 10921 10918 10916 10914 10911 10908 10907 10906 10904 10902 10901 10900 10902 10906 10911 10915 10918 10923 10928 10933 10938 10942 10946 10951 10956 10960 10964 10967 10968 10971 10973 10976 10977 10978 10978
10946 10942 10940 10934 10933 10929 10931 10929 10927 10928 10926 10922 10918 10918 10921 10920 10917 10915 10912 10909 10908 10906 10905 10903 10900 10898 10899 10903 10907 10911 10915 10918 10922 10928 10934 10939 10943 10948 10952 10957 10961 10965 10967 10969 10972 10974 10975 10976 10977
10947 10944 10939 10937 10934 10930 10931 10929 10925 10924 10924 10919 10915 10915 10917 10918 10914 10912 10912 10911 10909 10908 10906 10903 10901 10900 10900 10903 10905 10907 10910 10912 10916 10921 10927 10933 10939 10944 10948 10953 10958 10962 10964 10968 10969 10971 10972 10974 10976
10947 10944 10940 10938 10935 10932 10931 10929 10926 10921 10922 10919 10914 10912 10912 10911 10910 10909 10910 10910 10910 10908 10906 10904 10903 10903 10903 10904 10904 10905 10905 10905 10908 10914 10920 10928 10934 10939 10944 10949 10954 10958 10961 10964 10966 10969 10970 10972 10974
10949 10944 10939 10935 10932 10930 10930 10929 10924 10921 10916 10914 10912 10913 10907 10905 10907 10906 10906 10907 10908 10906 10905 10904 10903 10904 10903 10903 10904 10904 10903 10897 10897 10905 10914 10922 10929 10935 10940 10945 10951 10954 10957 10960 10962 10965 10967 10969 10971
10949 10946 10940 10934 10930 10926 10923 10922 10921 10917 10915 10911 10909 10907 10904 10904 10902 10905 10904 10904 10906 10906 10904 10904 10905 10904 10903 10902 10902 10904 10903 10899 10897 10901 10911 10919 10924 10930 10935 10940 10945 10950 10953 10955 10957 10961 10964 10966 10967
10948 10945 10939 10935 10930 10925 10919 10917 10918 10917 10912 10908 10906 10904 10904 10901 10898 10900 10902 10902 10905 10906 10905 10905 10906 10904 10903 10903 10903 10904 10904 10903 10903 10906 10912 10918 10922 10926 10931 10936 10940 10945 10948 10951 10953 10957 10959 10962 10963
10941 10939 10938 10934 10928 10924 10918 10914 10913 10913 10911 10905 10901 10900 10900 10896 10893 10894 10900 10901 10902 10904 10905 10906 10905 10906 10903 10903 10904 10904 10906 10906 10908 10910 10913 10917 10920 10925 10930 10935 10938 10943 10944 10945 10948 10951 10956 10958 10960
10937 10934 10933 10930 10927 10923 10917 10912 10909 10908 10907 10902 10898 10895 10896 10894 10891 10891 10895 10899 10899 10901 10903 10905 10905 10906 10905 10904 10905 10907 10908 10909 10910 10912 10914 10917 10919 10924 10927 10931 10934 10938 10940 10943 10944 10948 10952 10954 10956
10935 10930 10928 10926 10921 10915 10910 10907 10905 10903 10903 10900 10896 10892 10892 10892 10889 10888 10889 10894 10897 10898 10901 10903 10904 10905 10906 10904 10906 10907 10909 10909 10910 10912 10914 10917 10920 10923 10928 10930 10931 10933 10936 10940 10943 10946 10949 10953 10955
10932 10927 10922 10920 10917 10913 10906 10899 10901 10900 10896 10895 10890 10888 10886 10885 10886 10886 10884 10887 10891 10894 10897 10900 10903 10903 10905 10905 10905 10906 10906 10908 10910 10912 10915 10917 10920 10922 10925 10927 10930 10932 10935 10939 10943 10945 10947 10950 10952
10929 10923 10918 10914 10910 10906 10902 10896 10886 10888 10887 10885 10885 10885 10883 10882 10881 10883 10881 10881 10884 10889 10892 10895 10899 10901 10902 10903 10903 10905 10905 10905 10907 10910 10912 10916 10918 10921 10924 10926 10929 10932 10933 10936 10941 10945 10947 10950 10953
10928 10921 10914 10911 10903 10895 10892 10888 10884 10877 10880 10879 10879 10878 10878 10878 10883 10879 10875 10876 10877 10880 10886 10890 10892 10896 10900 10901 10901 10903 10903 10904 10905 10907 10910 10913 10916 10918 10922 10925 10928 10931 10933 10936 10940 10945 10948 10950 10952
10926 10919 10912 10905 10900 10896 10890 10886 10880 10873 10866 10866 10872 10873 10871 10870 10870 10870 10868 10869 10869 10872 10878 10883 10885 10889 10893 10895 10896 10899 10900 10901 10903 10904 10905 10908 10912 10915 10918 10922 10925 10929 10932 10936 10939 10943 10946 10949 10952
10923 10917 10911 10905 10897 10893 10889 10883 10879 10870 10855 10852 10853 10859 10861 10859 10858 10858 10856 10857 10858 10863 10867 10873 10877 10880 10886 10890 10890 10892 10895 10898 10899 10900 10902 10904 10908 10912 10916 10919 10924 10927 10931 10935 10938 10941 10944 10947 10950
10917 10915 10910 10904 10899 10889 10888 10878 10872 10865 10853 10843 10843 10840 10840 10842 10841 10837 10838 10840 10845 10847 10854 10862 10868 10870 10877 10883 10884 10887 10890 10893 10896 10897 10898 10901 10905 10909 10913 10917 10921 10925 10929 10934 10938 10940 10942 10944 10945
10914 10910 10904 10897 10890 10881 10878 10874 10867 10860 10852 10834 10824 10822 10816 10811 10811 10813 10811 10816 10826 10835 10842 10848 10854 10858 10864 10871 10879 10882 10885 10889 10892 10894 10896 10900 10902 10906 10910 10913 10918 10923 10927 10930 10934 10937 10939 10940 10942
10908 10904 10898 10891 10882 10874 10870 10867 10860 10854 10848 10838 10822 10812 10800 10788 10783 10785 10788 10792 10802 10812 10828 10838 10845 10850 10855 10859 10868 10875 10880 10883 10888 10890 10893 10897 10900 10902 10907 10910 10915 10920 10925 10928 10932 10935 10936 10938 10940
10897 10896 10891 10885 10878 10869 10863 10857 10851 10845 10841 10834 10822 10805 10795 10784 10771 10766 10771 10775 10780 10786 10801 10817 10827 10836 10845 10853 10860 10868 10873 10878 10878 10882 10887 10892 10897 10900 10903 10907 10910 10917 10922 10927 10930 10933 10933 10935 10936
10886 10885 10882 10879 10873 10864 10852 10847 10841 10832 10827 10819 10810 10800 10783 10770 10759 10755 10755 10760 10764 10774 10781 10795 10815 10824 10835 10842 10851 10862 10871 10875 10881 10884 10885 10888 10891 10896 10900 10904 10908 10912 10918 10925 10927 10926 10929 10930 10932
10879 10877 10872 10867 10862 10857 10846 10837 10828 10818 10813 10808 10799 10790 10777 10765 10751 10746 10748 10749 10749 10757 10772 10787 10803 10816 10825 10836 10844 10854 10866 10871 10876 10879 10884 10887 10890 10892 10897 10902 10905 10908 10914 10918 10922 10922 10925 10924 10926
10864 10867 10860 10854 10851 10847 10837 10827 10816 10809 10796 10793 10786 10779 10768 10758 10745 10739 10739 10743 10745 10755 10762 10779 10795 10809 10815 10824 10835 10844 10858 10866 10871 10879 10882 10886 10889 10892 10895 10900 10904 10907 10911 10915 10916 10918 10919 10920 10920
10842 10847 10848 10843 10837 10834 10830 10822 10811 10803 10793 10784 10775 10770 10759 10751 10742 10739 10738 10740 10743 10752 10762 10778 10791 10803 10815 10822 10830 10836 10845 10856 10862 10870 10876 10880 10886 10890 10892 10894 10899 10902 10905 10907 10910 10911 10913 10913 10912
10834 10832 10829 10828 10823 10816 10815 10811 10802 10793 10785 10778 10772 10762 10754 10747 10739 10738 10736 10738 10736 10745 10758 10767 10779 10792 10804 10812 10820 10831 10839 10850 10860 10863 10870 10875 10878 10884 10888 10892 10893 10894 10898 10900 10902 10904 10906 10908 10908